When you browse on this site, cookies collect data to enhance your experience and personalize the content and advertising you see.
Visit our Privacy Policy to learn more. By continuing to use the site, you agree to this use of cookies and data.
  • In Hungary
  • List of Countries
  • For 7 days
  • Water Temperature
  • Weather Map
  • News
  • Weather Widgets
  • user-avatar
    Login

    Hourly Weather Lazisko

    Today, 7 December, Saturday

    Time Temperature Precipitation Wind Pressure Humidity
    00:00 0°C° 0 mm 5 mps 745 mmHg 52%
    01:00 0°C° 0 mm 5 mps 744 mmHg 55%
    02:00 0°C° 0 mm 5 mps 744 mmHg 56%
    03:00 +1°C° 0 mm 6 mps 743 mmHg 57%
    04:00 +1°C° 0 mm 6 mps 743 mmHg 58%
    05:00 +2°C° 0.2 mm 6 mps 743 mmHg 67%
    06:00 +2°C° 0.2 mm 6 mps 743 mmHg 76%
    07:00 +2°C° 0 mm 6 mps 743 mmHg 83%
    08:00 +3°C° 0 mm 6 mps 743 mmHg 80%
    09:00 +4°C° 0 mm 7 mps 743 mmHg 78%
    10:00 +4°C° 0 mm 7 mps 743 mmHg 75%
    11:00 +5°C° 0.1 mm 7 mps 743 mmHg 77%
    12:00 +5°C° 0.1 mm 7 mps 743 mmHg 79%
    13:00 +5°C° 0.1 mm 7 mps 743 mmHg 81%
    14:00 +5°C° 0 mm 7 mps 743 mmHg 81%
    15:00 +5°C° 0 mm 7 mps 743 mmHg 81%
    16:00 +5°C° 0 mm 7 mps 744 mmHg 81%
    17:00 +5°C° 0.1 mm 7 mps 744 mmHg 81%
    18:00 +5°C° 0.1 mm 7 mps 745 mmHg 82%
    19:00 +5°C° 0.1 mm 7 mps 745 mmHg 83%
    20:00 +5°C° 0.2 mm 7 mps 745 mmHg 83%
    21:00 +5°C° 0.2 mm 7 mps 746 mmHg 83%
    22:00 +5°C° 0.2 mm 7 mps 746 mmHg 83%
    23:00 +5°C° 0.1 mm 6 mps 746 mmHg 83%

    Tomorrow, 8 December, Sunday

    Time Temperature Precipitation Wind Pressure Humidity
    00:00 +5°C° 0.1 mm 6 mps 746 mmHg 83%
    01:00 +5°C° 0.1 mm 6 mps 747 mmHg 83%
    02:00 +5°C° 0 mm 5 mps 746 mmHg 83%
    03:00 +5°C° 0 mm 5 mps 746 mmHg 84%
    04:00 +5°C° 0 mm 5 mps 745 mmHg 84%
    05:00 +3°C° 0 mm 5 mps 746 mmHg 83%
    06:00 +3°C° 0 mm 5 mps 746 mmHg 82%
    07:00 +3°C° 0 mm 5 mps 746 mmHg 81%
    08:00 +5°C° 0 mm 5 mps 746 mmHg 79%
    09:00 +4°C° 0 mm 6 mps 745 mmHg 76%
    10:00 +5°C° 0 mm 6 mps 745 mmHg 74%
    11:00 +5°C° 0 mm 6 mps 744 mmHg 72%
    12:00 +5°C° 0 mm 7 mps 743 mmHg 69%
    13:00 +6°C° 0 mm 7 mps 742 mmHg 67%
    14:00 +6°C° 0 mm 7 mps 742 mmHg 68%
    15:00 +6°C° 0 mm 7 mps 741 mmHg 69%
    16:00 +7°C° 0 mm 6 mps 741 mmHg 70%
    17:00 +6°C° 0.3 mm 7 mps 740 mmHg 74%
    18:00 +6°C° 0.3 mm 7 mps 740 mmHg 78%
    19:00 +6°C° 0.3 mm 7 mps 740 mmHg 81%
    20:00 +6°C° 0.4 mm 7 mps 740 mmHg 80%
    21:00 +6°C° 0.4 mm 7 mps 740 mmHg 79%
    22:00 +8°C° 0.4 mm 7 mps 739 mmHg 78%
    23:00 +8°C° 0 mm 6 mps 739 mmHg 79%

    Day after tomorrow, 9 December, Monday

    Time Temperature Precipitation Wind Pressure Humidity
    00:00 +8°C° 0 mm 6 mps 739 mmHg 79%
    01:00 +8°C° 0 mm 6 mps 739 mmHg 80%
    02:00 +8°C° 0.8 mm 6 mps 738 mmHg 82%
    03:00 +8°C° 0.8 mm 5 mps 738 mmHg 84%
    04:00 +8°C° 0.8 mm 5 mps 737 mmHg 86%
    05:00 +7°C° 0.7 mm 5 mps 737 mmHg 85%
    06:00 +7°C° 0.7 mm 5 mps 737 mmHg 83%
    07:00 +7°C° 0.7 mm 5 mps 738 mmHg 81%
    08:00 +7°C° 0 mm 5 mps 738 mmHg 76%
    09:00 +7°C° 0 mm 5 mps 738 mmHg 72%
    10:00 +7°C° 0 mm 5 mps 738 mmHg 67%
    11:00 +7°C° 0 mm 6 mps 738 mmHg 64%
    12:00 +8°C° 0 mm 6 mps 738 mmHg 61%
    13:00 +8°C° 0 mm 7 mps 738 mmHg 58%
    14:00 +6°C° 0 mm 7 mps 738 mmHg 60%
    15:00 +6°C° 0 mm 7 mps 737 mmHg 63%
    16:00 +5°C° 0 mm 6 mps 737 mmHg 66%
    17:00 +5°C° 0 mm 7 mps 737 mmHg 68%
    18:00 +5°C° 0 mm 7 mps 738 mmHg 70%
    19:00 +4°C° 0 mm 7 mps 738 mmHg 72%
    20:00 +4°C° 0 mm 7 mps 738 mmHg 73%
    21:00 +4°C° 0 mm 6 mps 738 mmHg 75%
    22:00 +4°C° 0 mm 6 mps 738 mmHg 76%
    23:00 +3°C° 0 mm 6 mps 739 mmHg 76%

    10 December, Tuesday

    Time Temperature Precipitation Wind Pressure Humidity
    00:00 +3°C° 0 mm 7 mps 739 mmHg 76%
    01:00 +3°C° 0 mm 7 mps 739 mmHg 76%
    02:00 +3°C° 0.1 mm 7 mps 740 mmHg 78%
    03:00 +3°C° 0.1 mm 7 mps 741 mmHg 80%
    04:00 +4°C° 0.1 mm 7 mps 742 mmHg 82%
    05:00 +3°C° 0.1 mm 7 mps 743 mmHg 78%
    06:00 +2°C° 0.1 mm 7 mps 743 mmHg 74%
    07:00 +1°C° 0.1 mm 6 mps 744 mmHg 70%
    08:00 +1°C° 0 mm 6 mps 745 mmHg 75%
    09:00 +1°C° 0 mm 6 mps 746 mmHg 80%
    10:00 +1°C° 0 mm 6 mps 747 mmHg 86%
    11:00 +2°C° 0.1 mm 6 mps 748 mmHg 87%
    12:00 +2°C° 0.1 mm 6 mps 749 mmHg 88%
    13:00 +2°C° 0.1 mm 6 mps 750 mmHg 89%
    14:00 +2°C° 0.2 mm 6 mps 751 mmHg 87%
    15:00 +1°C° 0.2 mm 6 mps 751 mmHg 85%
    16:00 +1°C° 0.2 mm 6 mps 752 mmHg 83%
    17:00 +1°C° 0 mm 5 mps 753 mmHg 80%
    18:00 0°C° 0 mm 4 mps 754 mmHg 77%
    19:00 0°C° 0 mm 4 mps 754 mmHg 74%
    20:00 +1°C° 0 mm 3 mps 755 mmHg 77%
    21:00 +1°C° 0 mm 2 mps 755 mmHg 79%
    22:00 -1°C° 0 mm 2 mps 755 mmHg 82%
    23:00 -1°C° 0 mm 2 mps 755 mmHg 83%

    11 December, Wednesday

    Time Temperature Precipitation Wind Pressure Humidity
    00:00 +1°C° 0 mm 1 mps 755 mmHg 84%
    01:00 +1°C° 0 mm 1 mps 755 mmHg 84%
    02:00 0°C° 0 mm 1 mps 754 mmHg 84%
    03:00 -2°C° 0 mm 2 mps 754 mmHg 84%
    04:00 -2°C° 0 mm 2 mps 754 mmHg 83%
    05:00 -2°C° 0 mm 3 mps 753 mmHg 81%
    06:00 -3°C° 0 mm 4 mps 753 mmHg 79%
    07:00 -2°C° 0 mm 4 mps 752 mmHg 77%
    08:00 -2°C° 0 mm 5 mps 752 mmHg 75%
    09:00 -2°C° 0 mm 6 mps 752 mmHg 73%
    10:00 -2°C° 0 mm 6 mps 752 mmHg 70%
    11:00 -1°C° 0 mm 6 mps 751 mmHg 68%
    12:00 +1°C° 0 mm 5 mps 750 mmHg 66%
    13:00 +1°C° 0 mm 5 mps 749 mmHg 63%
    14:00 0°C° 0 mm 4 mps 749 mmHg 66%
    15:00 0°C° 0 mm 4 mps 749 mmHg 69%
    16:00 0°C° 0 mm 3 mps 749 mmHg 72%
    17:00 0°C° 0 mm 3 mps 748 mmHg 71%
    18:00 0°C° 0 mm 3 mps 748 mmHg 71%
    19:00 0°C° 0 mm 3 mps 748 mmHg 70%
    20:00 -1°C° 0 mm 3 mps 747 mmHg 71%
    21:00 -1°C° 0 mm 3 mps 747 mmHg 72%
    22:00 -1°C° 0 mm 3 mps 747 mmHg 73%
    23:00 -1°C° 0 mm 3 mps 747 mmHg 74%

    12 December, Thursday

    Time Temperature Precipitation Wind Pressure Humidity
    00:00 -1°C° 0 mm 3 mps 746 mmHg 75%
    01:00 -1°C° 0 mm 3 mps 746 mmHg 76%
    02:00 -1°C° 0 mm 3 mps 745 mmHg 77%
    03:00 -2°C° 0 mm 4 mps 745 mmHg 77%
    04:00 -2°C° 0 mm 4 mps 745 mmHg 78%
    05:00 -1°C° 0 mm 3 mps 745 mmHg 82%
    06:00 -1°C° 0 mm 3 mps 745 mmHg 87%
    07:00 -1°C° 0 mm 3 mps 745 mmHg 91%
    08:00 -1°C° 0 mm 3 mps 745 mmHg 92%
    09:00 0°C° 0 mm 3 mps 745 mmHg 92%
    10:00 0°C° 0 mm 3 mps 745 mmHg 93%
    11:00 0°C° 0 mm 3 mps 745 mmHg 91%
    12:00 +2°C° 0 mm 2 mps 745 mmHg 89%
    13:00 +2°C° 0 mm 2 mps 745 mmHg 88%
    14:00 +2°C° 0 mm 2 mps 745 mmHg 90%
    15:00 +1°C° 0 mm 2 mps 745 mmHg 92%
    16:00 +1°C° 0 mm 2 mps 745 mmHg 94%
    17:00 +1°C° 0 mm 2 mps 745 mmHg 94%
    18:00 +1°C° 0 mm 2 mps 745 mmHg 94%
    19:00 +1°C° 0 mm 2 mps 745 mmHg 94%
    20:00 +1°C° 0 mm 2 mps 745 mmHg 94%
    21:00 +1°C° 0 mm 2 mps 745 mmHg 93%
    22:00 -1°C° 0 mm 2 mps 745 mmHg 92%
    23:00 -1°C° 0 mm 2 mps 744 mmHg 91%
    Show more